Torna al catalogo

ARIANE 2 DEB

AttivoGTO
NORAD 33560·DEBRIS·🇫🇷 France

Lanciato Jan 27, 1989 da Guiana Space Centre

Loading…

TLE

In scadenzaSource: Space-Track

Epoca: Sep 14, 2026, 13:14 UTC

1 33560U 89006BC  26257.55192478  .00000151  00000-0  12866-1 0  9994
2 33560  10.9550 353.7257 7088801 194.6934 278.6510  2.25272845182871

Traccia ARIANE 2 DEB in tempo reale con AllMySat

Download on the App Store